This is the latest recevied weather packets stored in our database for station/object ALANSN-2. If no packets are shown the sender has not sent any weather packets the latest 10 day(s).
| Time | Temp. | Humidity | Pressure | Rain* | Wind** | Luminosity | Snow |
|---|---|---|---|---|---|---|---|
| 1787794620 | 19.44° C | 98% | 1020.7 hPa | 0 mm | - | 0 W/m² | - |
| 1787794320 | 19.44° C | 98% | 1020.6 hPa | 0 mm | - | 0 W/m² | - |
| 1787794020 | 19.44° C | 98% | 1020.6 hPa | 0 mm | - | 0 W/m² | - |
| 1787793719 | 19.44° C | 98% | 1020.6 hPa | 0 mm | - | 0 W/m² | - |
| 1787793420 | 19.44° C | 98% | 1020.5 hPa | 0 mm | - | 0 W/m² | - |
| 1787793119 | 19.44° C | 98% | 1020.5 hPa | 0 mm | - | 0 W/m² | - |
| 1787792820 | 19.44° C | 97% | 1020.5 hPa | 0 mm | - | 0 W/m² | - |
| 1787792519 | 19.44° C | 97% | 1020.6 hPa | 0 mm | - | 0 W/m² | - |
| 1787792221 | 19.44° C | 97% | 1020.6 hPa | 0 mm | - | 0 W/m² | - |
| 1787791919 | 20° C | 96% | 1020.3 hPa | 0 mm | - | 0 W/m² | - |
| 1787791620 | 20° C | 96% | 1020.5 hPa | 0 mm | - | 0 W/m² | - |
| 1787791320 | 20° C | 96% | 1020.5 hPa | 0 mm | - | 0 W/m² | - |
| 1787791020 | 20° C | 95% | 1020.4 hPa | 0 mm | - | 0 W/m² | - |
| 1787790719 | 20° C | 94% | 1020.3 hPa | 0 mm | - | 2 W/m² | - |
| 1787790420 | 20° C | 94% | 1020.3 hPa | 0 mm | - | 2 W/m² | - |
| 1787790119 | 20° C | 93% | 1020.4 hPa | 0 mm | - | 3 W/m² | - |
| 1787789820 | 20.56° C | 92% | 1020.3 hPa | 0 mm | - | 8 W/m² | - |
| 1787789519 | 20.56° C | 92% | 1020.3 hPa | 0 mm | - | 8 W/m² | - |
| 1787789221 | 20.56° C | 91% | 1020.2 hPa | 0 mm | - | 9 W/m² | - |
| 1787788919 | 20.56° C | 90% | 1020 hPa | 0 mm | - | 19 W/m² | - |
| 1787788620 | 20.56° C | 90% | 1020 hPa | 0 mm | - | 19 W/m² | - |
| 1787788319 | 21.11° C | 89% | 1019.9 hPa | 0 mm | - | 20 W/m² | - |
| 1787788020 | 21.11° C | 89% | 1020.2 hPa | 0 mm | - | 34 W/m² | - |
| 1787787719 | 21.11° C | 89% | 1020.2 hPa | 0 mm | - | 34 W/m² | - |
| 1787787420 | 21.11° C | 90% | 1020.3 hPa | 0 mm | - | 35 W/m² | - |
* Rain latest hour (hover to see other rain measurements)
** Current wind speed in m/s (hover to see current wind gust speed)